EHI
0 0 0 0 0 0 0 0 0 0 0 0 0 0 0 0 0 0 0 0 0 0 0 0 0 0 0 0 0 0 0 0 0 0 0 0 0 0
0 0 0 0 0 0 0 0 0 0 0 0 0 0 0 0 0 0 0 0 0 0 0 0 0 0 0 0 0 0 0 0 0 0 0 0 0 0
0 0 0 0 0 0 0 0 0 0 0 0 0 0 0 0 0 0 0 0 0 0 0 0 0 0 0 0 0 0 0 0 0 0 0 0 0 0
0 0 0 0 0 0 0 0 0 0 0 0 0 0 0 0 0 0 0 0 0 0 0 0 0 0 0 0 0 0 0 0 0 0 0 0 0 0
0 0 0 0 0 0 0 0 0 0 0 0 0 0 0 0 0 0 0 0 0 0 0 0 0 0 0 0 0 0 0 0 0 0 0 0 0 0
0 0 0 0 0 0 0 0 0 0 0 0 0 0 0 0 0 0 0 0 0 0 0 0 0 0 0 0 0 0 0 0 0 0 0 0 0 0
0 0 0 0 0 0 0 0 0 0 0 0 0 0 0 0 0 0 0 0 0 0 0 0 0 0 0 0 0 0 0 0 0 0 0 0 0 0
0 0 0 0 0 0 0 0 0 0 0 0 0 0 0 0 0 0 0 0 0 0 0 0 0 0 0 0 0 0 0 0 0 0 0 0 0 0
0 0 0 0 0 0 0 0 0 0 0 0 0 0 0 0 0 0 0 0 0 0 0 0 0 0 0 0 0 0 0 0 0 0 0 0 0 0
0 0 0 0 0 0 0 0 0 0 0 0 0 0 0 0 0 0 0 0 0 0 0 0 0 0 0 0 0 0 0 0 0 0 0 0 0 0
0 0 0 0 0 0 0 0 0 0 0 0 0 0 0 0 0 0 0 0 0 0 0 0 0 0 0 0 0 0 0 0 0 0 0 0 0 0
0 0 0 0 0 0 0 0 0 0 0 0 0 0 0 0 0 0 0 0 0 0 0 0 0 0 0 0 0 0 0 0 0 0 0 0 0 0
0 0 0 0 0 0 0 0 0 0 0 0 0 0 0 0 0 0 0 0 0 0 0 0 0 0 0 0 0 0 0 0 0 0 0 0 0 0
0 0 0 0 0 0 0 0 0 0 0 0 0 0 0 0 0 0 0 0 0 0 0 0 0 0 0 0 0 0 0 0 0 0 0 0 0 0
0 0 0 0 0 0 0 0 0 0 0 0 0 0 0 0 0 0 0 0 0 0 0 0 0 0 0 0 0 0 0 0 0 0 0 0 0 0
0 0 0 0 0 0 0 0 0 0 0 0 0 0 0 0 0 0 0 0 0 0 0 0 0 0 0 0 0 0 0 0 0 0 0 0 0 0
0 0 0 0 0 0 0 0 0 0 0 0 0 0 0 0 0 0 0 0 0 0 0 0 0 0 0 0 0 0 0 0 0 0 0 0 0 0
0 0 0 0 0 0 0 0 0 0 0 0 0 0 0 0 0 0 0 0 0 0 0 0 0 0 0 0 0 0 0 0 0 0 0 0 0 0
0 0 0 0 0 0 0 0 0 0 0 0 0 0 0 0 0 0 0 0 0 0 0 0 0 0 0 0 0 0 0 0 0 0 0 0 0 0
0 0 0 0 0 0 0 0 0 0 0 0 0 0 0 0 0 0 0 0 0 0 0 0 0 0 0 0 0 0 0 0 0 0 0 0 0 0
0 0 0 0 0 0 0 0 0 0 0 0 0 0 0 0 0 0 0 0 0 0 0 0 0 0 0 0 0 0 0 0 0 0 0 0 0 0
0 0 0 0 0 0 0 0 0 0 0 0 0 0 0 0 0 0 0 0 0 0 0 0 0 0 0 0 0 0 0 0 0 0 0 0 0 0
0 0 0 0 0 0 0 0 0 0 0 0 0 0 0 0 0 0 0 0 0 0 0 0 0 0 0 0 0 0 0 0 0 0 0 0 0 0
Wind_Speed
6 7 6 6 6 6 6 6 8 9 7 5 4 5 4 4 8 5 5 11 14 12 10 8 8 9 11 12 14 15 17 18 20 20 21 22 22 22
6 7 7 6 6 6 6 6 7 9 8 4 5 6 7 8 11 6 6 14 13 9 7 6 6 8 11 14 16 18 19 21 22 22 23 23 23 23
8 8 10 9 7 6 6 6 7 7 10 6 5 6 6 7 8 6 5 4 2 1 1 3 5 9 12 16 19 21 23 24 24 25 25 25 24 23
10 10 11 9 9 8 7 7 7 7 8 10 7 5 6 7 7 6 3 1 1 3 5 6 9 12 16 19 22 24 26 27 28 28 27 26 25 22
10 10 11 10 10 8 7 7 6 6 6 8 9 6 5 5 5 2 2 2 2 4 6 8 12 16 19 22 25 28 28 29 29 29 28 26 24 21
9 10 10 10 10 8 7 6 6 7 7 8 9 7 6 4 3 2 2 2 2 3 5 8 12 17 21 26 29 29 28 28 29 28 27 25 22 19
10 10 10 14 14 10 9 8 8 8 8 9 9 7 6 4 3 2 3 2 1 2 3 5 8 9 14 22 25 21 19 20 23 25 24 22 19 17
10 11 12 12 13 16 18 18 17 14 12 10 8 8 6 3 3 4 4 2 1 3 3 5 8 10 13 14 17 8 4 13 19 21 21 21 21 23
10 10 11 11 13 10 16 20 19 21 20 14 10 9 5 4 5 5 3 3 2 3 3 5 7 9 12 17 23 18 19 21 24 26 27 28 29 31
10 11 11 11 11 13 14 14 14 13 13 9 7 6 4 5 6 6 8 7 4 4 4 4 6 7 11 14 29 30 29 31 33 34 35 36 36 36
11 11 12 11 15 19 15 13 13 9 7 1 4 7 10 13 12 9 7 6 4 4 4 3 4 6 9 13 20 34 36 36 37 38 39 39 39 35
11 11 14 14 18 19 13 11 10 6 3 7 11 14 12 13 11 6 5 5 4 3 3 3 4 4 6 10 13 14 20 32 36 36 35 34 31 22
10 9 10 17 19 18 14 8 6 3 4 9 10 10 9 8 8 6 5 4 4 4 1 2 3 4 5 6 10 13 13 14 16 22 28 31 28 22
9 8 10 17 17 15 10 7 3 4 6 8 8 8 8 8 7 7 7 7 7 8 6 4 3 5 7 9 9 10 12 12 13 15 15 24 27 27
8 15 16 16 13 9 11 9 6 6 7 8 8 8 8 8 7 7 8 8 9 8 8 6 6 7 8 11 11 10 10 11 11 11 12 12 11 12
10 12 14 13 10 10 9 7 6 6 7 9 9 9 8 8 7 6 6 5 6 6 6 8 8 8 9 9 9 9 8 7 8 9 11 11 10 9
10 7 6 7 8 7 7 6 6 7 8 8 9 8 8 8 7 5 4 4 5 6 6 5 6 7 8 7 10 11 11 10 9 8 10 11 10 8
9 7 7 7 7 8 7 6 6 7 7 8 8 7 7 7 7 5 4 4 5 5 5 5 6 8 9 10 10 11 10 9 8 8 8 11 10 7
7 7 7 7 7 7 7 6 6 6 6 7 7 7 7 7 6 5 4 4 5 5 5 4 4 5 9 10 8 8 10 9 8 9 8 8 8 5
7 7 7 7 6 6 6 6 6 6 6 6 7 7 7 6 6 5 4 4 4 5 5 5 5 6 6 7 6 5 7 9 9 9 7 7 7 9
8 8 7 6 6 6 6 6 6 6 7 6 6 6 6 5 5 4 4 6 5 5 6 5 6 9 6 6 7 6 6 8 8 7 6 6 5 3
8 8 7 7 6 6 6 6 6 6 7 6 6 5 5 5 4 5 4 4 4 6 7 5 6 7 6 8 8 6 5 6 9 10 7 4 5 5
8 8 7 7 6 5 5 6 7 6 6 5 5 4 4 4 3 3 4 5 6 8 7 6 6 6 7 8 7 6 6 4 3 4 5 6 7 12
Wind_Direction
302 293 285 277 273 267 262 262 276 289 287 272 273 268 262 265 274 269 259 278 285 274 252 244 254 266 271 273 271 268 266 263 261 259 257 256 255 256
298 293 288 282 279 272 266 260 257 270 278 260 262 272 280 284 286 279 267 285 284 262 237 240 262 273 278 278 276 272 267 261 257 254 252 250 250 251
301 299 292 286 280 275 270 265 262 261 274 276 263 273 273 273 280 273 271 270 266 227 307 309 302 296 291 286 281 275 269 262 255 250 247 245 244 244
306 301 296 294 285 280 273 268 264 258 267 279 280 276 266 267 267 272 282 236 85 44 15 341 319 309 300 291 283 276 268 259 251 245 240 238 237 237
302 299 296 295 291 286 279 275 271 272 263 274 280 273 267 265 264 258 80 54 53 26 1 341 325 314 304 296 288 278 265 251 241 235 231 228 226 226
302 298 296 294 291 292 293 286 285 282 275 272 273 273 268 259 230 180 122 67 36 10 354 338 325 320 312 304 293 280 262 243 228 220 215 212 211 211
307 303 303 306 312 316 314 303 294 284 277 271 268 267 261 244 212 159 135 129 57 0 327 333 326 320 317 310 304 285 258 223 205 196 192 191 189 181
308 309 307 304 315 319 315 309 298 287 279 269 263 256 253 227 166 146 145 162 67 355 343 343 341 335 330 326 330 334 141 155 160 161 160 156 148 139
303 307 310 310 314 309 310 307 298 288 278 267 255 247 233 193 152 137 112 91 62 345 341 359 348 347 342 352 18 55 84 104 116 122 123 121 118 116
304 303 302 305 307 312 310 302 297 294 285 265 238 228 198 147 129 121 116 102 76 32 19 21 354 354 356 10 33 56 74 87 96 100 102 102 102 102
309 308 307 305 307 314 311 304 304 306 319 357 128 120 118 118 122 120 121 115 87 34 10 28 351 350 10 23 33 52 65 76 85 91 95 96 96 93
313 311 311 309 312 314 310 304 304 319 17 80 89 92 96 96 93 96 112 113 106 85 4 13 350 345 23 26 33 41 56 67 75 80 85 90 93 94
313 314 311 313 316 314 312 303 296 311 88 96 94 92 90 86 81 74 66 79 93 88 70 29 31 35 65 61 46 44 51 58 65 71 74 79 83 91
310 309 310 315 319 320 324 331 4 101 102 98 95 93 91 89 85 80 76 73 78 87 80 64 61 62 81 82 72 60 58 58 66 72 76 79 81 84
318 323 326 328 332 335 347 9 68 96 99 97 93 91 91 94 91 86 82 83 83 83 78 63 65 70 78 89 89 82 79 68 67 76 80 81 86 91
331 328 331 338 348 351 1 29 60 79 92 95 95 96 95 93 89 87 90 85 85 77 65 66 68 76 88 88 92 89 79 86 86 83 88 86 82 82
330 336 349 351 0 6 18 40 65 80 88 95 101 103 101 99 95 83 81 76 80 86 84 73 72 74 73 80 89 88 88 85 82 84 89 87 75 72
350 352 356 1 5 11 21 38 60 78 90 98 102 103 104 105 105 94 81 78 83 82 83 87 95 92 85 70 69 92 87 86 83 81 87 95 86 66
0 358 2 6 10 15 24 38 59 75 88 96 101 103 104 105 108 104 91 84 80 75 75 77 81 96 104 97 66 76 104 98 90 82 75 80 86 72
359 360 3 8 14 21 28 39 57 73 83 91 96 99 102 105 106 101 95 94 86 83 81 72 72 77 89 94 89 60 76 109 109 102 91 82 78 72
357 0 4 11 18 25 31 42 55 69 78 84 89 95 99 100 97 92 95 101 90 89 92 85 90 96 89 82 84 67 46 59 97 114 113 100 82 62
358 1 5 14 21 29 34 43 54 63 71 77 83 87 89 91 92 89 98 103 99 101 101 95 92 92 90 97 99 93 78 72 75 74 61 97 135 144
360 1 5 13 21 29 39 46 53 59 64 70 76 81 85 85 82 85 99 107 113 113 108 100 92 91 98 106 107 102 102 94 71 49 15 24 118 109